Vorticity
12 20 26 16 12 18 20 20 15 10 14 13 8 10 19 30 39 66 35 8 23 23 23 16 14 14 16 17 17 14 21 17 18 6 7 16 14 7 11 5 4 6 3
-4 22 16 19 3 3 4 9 4 8 5 16 20 11 13 17 8 60 71 44 31 10 16 18 13 12 11 7 14 18 10 20 16 30 8 3 7 18 21 11 3 3 10
6 -3 13 16 10 12 13 16 21 16 25 17 14 13 13 32 16 22 72 65 46 13 17 18 14 14 14 12 10 18 17 10 23 15 12 8 6 6 9 20 15 7 6
5 6 -6 19 16 13 7 11 6 6 19 26 7 13 15 25 13 22 20 19 25 35 34 30 8 12 18 16 18 24 22 14 20 21 18 8 5 6 7 9 15 12 4
5 5 6 6 6 8 11 -3 14 15 6 19 23 8 14 15 20 13 15 27 33 27 5 22 19 9 12 5 10 14 24 14 18 33 13 15 9 3 6 -0 1 7 7
4 7 8 10 2 20 -5 21 19 18 17 7 19 28 8 24 21 24 25 9 18 39 19 23 21 10 12 19 7 9 31 19 19 18 28 13 11 9 9 18 17 16 11
2 3 6 17 12 5 1 -4 -2 -3 21 18 9 9 12 18 30 17 20 19 13 11 25 28 9 -4 25 22 17 27 23 24 22 22 16 17 17 19 13 16 16 14 16
3 0 0 4 1 13 13 13 9 -2 7 12 -1 22 16 33 8 29 21 22 24 24 23 25 23 26 22 15 12 19 19 17 18 17 19 19 18 21 13 13 9 10 13
4 4 0 1 2 5 -0 16 11 8 -10 -6 8 -12 -0 -3 38 9 9 38 13 14 17 22 21 25 25 19 17 17 20 18 15 13 11 9 4 5 9 11 8 8 13
1 6 4 2 2 2 2 4 6 12 12 7 -1 2 9 -10 12 -19 30 18 38 11 12 9 9 11 9 9 11 11 5 3 6 10 11 14 15 10 10 0 8 14 12
10 6 3 3 2 3 5 4 3 2 7 12 7 9 5 1 3 2 8 11 18 17 15 23 30 25 19 8 8 6 7 9 8 8 13 11 8 23 12 -19 39 18 12
8 7 8 9 9 10 11 10 8 5 3 3 7 8 9 5 8 7 7 6 7 10 -7 12 35 12 -8 9 18 9 16 38 19 15 12 14 3 3 19 9 13 5 25
30 30 27 23 22 21 20 22 21 15 11 4 4 5 7 9 5 4 4 5 9 4 7 -10 -0 4 10 10 28 21 11 15 13 19 13 5 12 15 16 5 8 6 4
4 0 -2 4 4 4 -0 -3 -1 2 15 26 24 14 6 6 8 7 3 4 5 11 7 -0 0 1 1 4 5 5 6 6 7 7 6 6 6 4 4 3 2 3 5
3 3 4 2 3 3 9 3 4 2 5 3 -3 0 13 20 22 12 8 9 5 5 6 6 6 9 8 4 1 3 6 5 5 5 5 5 5 5 5 6 7 7 8
-0 4 3 2 2 2 1 2 6 10 8 4 2 5 8 5 2 1 18 23 10 10 8 5 6 5 5 7 8 6 5 4 4 5 6 6 6 7 7 8 7 6 6
4 5 3 2 3 2 3 3 2 3 4 5 7 10 7 7 5 9 13 -1 3 18 23 13 11 7 5 5 6 4 6 9 10 6 4 5 5 4 5 8 9 7 6
3 3 3 3 6 3 0 5 7 4 2 5 3 -1 -4 -0 3 5 10 7 5 7 11 8 19 24 20 15 12 7 6 7 6 5 4 4 4 4 3 3 7 8 6
6 10 4 6 4 4 -1 -7 -3 1 2 -1 -2 -2 5 2 -0 8 11 8 7 8 9 10 1 -1 -4 6 10 21 28 22 11 9 9 7 7 8 9 7 5 5 6
11 9 14 10 15 11 13 14 7 10 16 22 21 19 6 2 2 5 13 10 10 7 12 13 12 12 10 -1 8 -2 12 -1 7 12 26 21 13 9 7 8 10 9 9
18 19 19 17 14 14 12 14 16 13 15 11 16 7 12 20 15 16 23 9 8 9 8 8 9 10 5 -1 -4 -1 1 -2 3 4 6 12 9 27 16 8 9 10 10
14 11 11 9 12 14 14 13 15 15 17 11 13 14 16 13 14 8 9 12 8 8 3 0 6 5 9 12 11 9 3 2 -2 3 6 10 15 6 18 19 10 10 11
15 15 15 15 18 17 17 19 16 16 19 17 12 12 18 16 12 9 9 10 9 8 9 7 5 4 -0 -1 -2 -5 3 6 13 19 14 16 12 5 12 18 14 12 11
24 24 21 18 18 24 20 23 20 22 18 18 16 12 15 12 9 8 10 9 10 10 11 12 8 7 8 10 10 12 12 19 24 26 21 18 15 18 19 14 13 10 12
17 15 14 14 17 15 14 13 10 7 7 9 12 15 15 16 15 15 11 7 11 11 7 8 9 11 14 19 23 29 28 28 24 22 27 27 21 13 15 12 11 11 14
20 15 10 7 9 9 9 7 9 10 9 10 10 14 18 22 21 16 10 8 12 10 11 14 17 25 24 26 25 22 17 23 10 9 6 14 16 14 12 21 16 18 16
Height
5663 5654 5649 5644 5636 5628 5625 5619 5612 5606 5598 5590 5582 5573 5563 5552 5542 5529 5528 5533 5538 5546 5553 5562 5572 5582 5589 5597 5606 5612 5618 5624 5630 5646 5653 5661 5669 5675 5678 5682 5688 5693 5697
5660 5653 5645 5641 5633 5627 5621 5614 5608 5601 5591 5582 5572 5562 5549 5537 5525 5507 5499 5504 5516 5527 5537 5545 5557 5565 5574 5582 5589 5597 5603 5609 5616 5624 5634 5645 5653 5659 5665 5668 5675 5680 5683
5659 5652 5644 5638 5631 5623 5616 5608 5602 5593 5583 5573 5563 5553 5540 5528 5515 5499 5487 5488 5498 5511 5523 5532 5542 5551 5560 5568 5576 5582 5588 5594 5599 5608 5619 5627 5637 5643 5650 5655 5661 5665 5669
5656 5650 5643 5636 5630 5623 5613 5606 5598 5589 5578 5566 5557 5547 5536 5524 5512 5502 5495 5493 5496 5504 5513 5522 5532 5541 5552 5557 5563 5569 5573 5578 5584 5593 5602 5611 5620 5628 5634 5642 5647 5649 5654
5653 5647 5641 5635 5628 5621 5612 5604 5595 5585 5575 5564 5553 5544 5535 5523 5513 5507 5502 5498 5499 5502 5511 5520 5527 5537 5544 5548 5553 5558 5562 5566 5573 5581 5590 5597 5607 5615 5622 5626 5632 5635 5639
5650 5644 5638 5632 5626 5619 5611 5602 5594 5584 5575 5563 5553 5543 5533 5524 5516 5511 5506 5503 5502 5504 5511 5518 5524 5530 5535 5540 5545 5549 5553 5557 5562 5569 5577 5586 5593 5600 5607 5612 5617 5621 5627
5647 5643 5637 5631 5624 5618 5611 5603 5594 5585 5576 5567 5555 5546 5537 5528 5519 5512 5507 5505 5505 5507 5510 5514 5518 5523 5527 5532 5538 5541 5544 5548 5553 5559 5566 5575 5582 5590 5596 5601 5605 5609 5612
5644 5640 5635 5629 5622 5616 5609 5602 5595 5587 5578 5570 5561 5551 5541 5533 5525 5518 5512 5509 5509 5509 5510 5512 5515 5519 5522 5525 5530 5532 5535 5540 5547 5553 5559 5566 5573 5579 5583 5588 5591 5595 5598
5639 5635 5630 5625 5620 5613 5607 5600 5594 5587 5580 5573 5564 5556 5548 5538 5530 5523 5518 5514 5512 5511 5512 5513 5515 5517 5520 5523 5526 5528 5532 5535 5540 5545 5551 5557 5563 5567 5571 5574 5578 5581 5584
5631 5628 5624 5620 5615 5610 5605 5599 5592 5586 5579 5573 5567 5560 5553 5545 5538 5531 5525 5521 5516 5515 5514 5514 5516 5517 5518 5520 5523 5525 5528 5532 5536 5541 5545 5549 5554 5558 5562 5564 5567 5569 5572
5624 5621 5617 5613 5609 5605 5600 5596 5590 5584 5579 5573 5567 5562 5556 5549 5544 5538 5532 5528 5523 5520 5517 5515 5516 5517 5518 5519 5521 5523 5525 5528 5531 5534 5538 5541 5545 5548 5551 5554 5556 5558 5560
5617 5613 5610 5606 5602 5598 5594 5589 5585 5580 5576 5571 5566 5562 5557 5552 5546 5542 5537 5534 5529 5525 5522 5520 5519 5519 5519 5519 5520 5522 5523 5525 5528 5530 5532 5535 5537 5541 5543 5546 5548 5551 5553
5609 5605 5601 5598 5595 5591 5587 5583 5579 5575 5571 5567 5563 5558 5555 5551 5547 5544 5539 5536 5533 5530 5528 5525 5524 5523 5521 5521 5521 5522 5523 5523 5525 5527 5528 5530 5533 5536 5538 5540 5542 5544 5546
5601 5598 5595 5592 5588 5585 5582 5578 5574 5570 5566 5562 5559 5555 5552 5548 5545 5542 5539 5537 5534 5531 5529 5527 5524 5522 5521 5521 5519 5520 5521 5523 5524 5525 5526 5527 5529 5531 5533 5535 5536 5537 5538
5594 5591 5586 5581 5579 5576 5574 5572 5568 5565 5562 5558 5554 5550 5548 5545 5541 5538 5535 5533 5531 5529 5527 5525 5524 5523 5521 5519 5518 5518 5517 5517 5518 5520 5521 5522 5524 5525 5526 5526 5526 5527 5526
5583 5580 5576 5574 5570 5566 5564 5562 5559 5557 5554 5551 5548 5545 5542 5539 5536 5533 5530 5528 5526 5524 5522 5521 5520 5518 5518 5517 5516 5515 5515 5514 5514 5514 5514 5515 5515 5515 5516 5516 5515 5515 5514
5569 5566 5565 5561 5558 5556 5553 5550 5548 5546 5543 5541 5539 5537 5534 5531 5528 5526 5524 5521 5519 5517 5516 5514 5513 5511 5510 5510 5509 5509 5508 5508 5507 5506 5506 5505 5505 5505 5505 5504 5503 5502 5501
5554 5552 5549 5546 5545 5542 5539 5537 5534 5531 5530 5528 5526 5524 5523 5521 5518 5516 5513 5512 5510 5508 5506 5505 5503 5503 5502 5501 5500 5499 5498 5498 5497 5497 5496 5496 5494 5493 5492 5491 5490 5488 5487
5535 5533 5531 5529 5527 5525 5523 5521 5519 5517 5515 5514 5512 5509 5507 5505 5504 5502 5501 5499 5497 5495 5494 5493 5493 5491 5490 5489 5488 5488 5487 5486 5485 5484 5483 5481 5480 5479 5478 5477 5475 5474 5472
5514 5511 5511 5510 5508 5506 5505 5504 5501 5500 5499 5496 5495 5493 5491 5489 5487 5486 5485 5483 5481 5480 5479 5478 5477 5477 5476 5475 5475 5474 5473 5473 5471 5469 5468 5466 5465 5464 5462 5461 5459 5458 5456
5498 5495 5494 5492 5489 5488 5486 5485 5484 5482 5480 5478 5477 5476 5474 5471 5470 5469 5469 5467 5465 5463 5463 5462 5461 5459 5459 5459 5458 5457 5457 5456 5455 5454 5452 5450 5448 5447 5445 5443 5442 5441 5439
5478 5476 5475 5474 5471 5470 5468 5466 5465 5464 5462 5461 5459 5457 5456 5454 5452 5452 5451 5450 5448 5446 5445 5444 5443 5442 5441 5440 5438 5437 5436 5436 5435 5434 5432 5431 5430 5428 5427 5425 5424 5423 5422
5460 5458 5457 5455 5454 5452 5451 5448 5446 5445 5445 5443 5440 5439 5438 5437 5435 5434 5434 5433 5431 5428 5426 5425 5423 5421 5421 5419 5417 5417 5416 5415 5413 5412 5411 5411 5410 5409 5408 5407 5406 5406 5405
5443 5441 5440 5438 5437 5436 5435 5432 5429 5429 5428 5427 5425 5420 5419 5419 5417 5417 5417 5415 5415 5412 5408 5407 5405 5403 5400 5398 5396 5394 5392 5392 5391 5390 5389 5389 5388 5389 5390 5390 5390 5390 5389
5426 5425 5423 5422 5421 5420 5417 5417 5413 5412 5412 5410 5407 5405 5403 5401 5400 5400 5399 5397 5396 5393 5388 5386 5384 5382 5379 5376 5374 5372 5370 5369 5370 5370 5369 5369 5370 5371 5373 5373 5373 5374 5374
5410 5408 5406 5406 5405 5405 5403 5399 5396 5395 5395 5391 5389 5387 5387 5385 5382 5382 5380 5378 5376 5372 5367 5365 5363 5361 5358 5356 5355 5355 5355 5355 5355 5354 5354 5353 5353 5354 5355 5356 5357 5358 5359